Time,TemperatureF,DewpointF,PressureIn,WindDirection,WindDirectionDegrees,WindSpeedMPH,WindSpeedGustMPH,Humidity,HourlyPrecipIn,Conditions,Clouds,dailyrainin,SoftwareType,DateUTC
2013-01-09 00:03:00,52.2,51.7,29.65,ESE,112,4.2,-999.0,98,-99.99,,,0.05,Acu-Link.com,2013-01-09 08:03:00,
2013-01-09 00:19:00,52.0,51.5,29.64,WNW,292,5.8,-999.0,98,-99.99,,,0.09,Acu-Link.com,2013-01-09 08:19:00,
2013-01-09 00:34:00,51.8,51.3,29.64,West,270,10.4,-999.0,98,-99.99,,,0.12,Acu-Link.com,2013-01-09 08:34:00,
2013-01-09 00:50:00,51.8,51.3,29.64,NW,315,7.3,-999.0,98,-99.99,,,0.15,Acu-Link.com,2013-01-09 08:50:00,
2013-01-09 01:11:00,51.6,51.1,29.65,West,270,4.7,-999.0,98,-99.99,,,0.20,Acu-Link.com,2013-01-09 09:11:00,
2013-01-09 01:27:00,51.1,50.6,29.66,South,180,2.2,-999.0,98,-99.99,,,0.22,Acu-Link.com,2013-01-09 09:27:00,
2013-01-09 01:42:00,50.0,49.5,29.67,NW,315,4.2,-999.0,98,-99.99,,,0.24,Acu-Link.com,2013-01-09 09:42:00,
2013-01-09 01:57:00,48.9,48.4,29.66,West,270,1.1,-999.0,98,-99.99,,,0.26,Acu-Link.com,2013-01-09 09:57:00,
2013-01-09 02:12:00,48.4,47.9,29.66,West,270,2.7,-999.0,98,-99.99,,,0.28,Acu-Link.com,2013-01-09 10:12:00,
2013-01-09 02:27:00,47.7,47.2,29.66,WSW,247,2.7,-999.0,98,-99.99,,,0.31,Acu-Link.com,2013-01-09 10:27:00,
2013-01-09 02:43:00,47.1,46.6,29.67,West,270,4.7,-999.0,98,-99.99,,,0.32,Acu-Link.com,2013-01-09 10:43:00,
2013-01-09 02:58:00,46.8,46.3,29.67,West,270,5.3,-999.0,98,-99.99,,,0.34,Acu-Link.com,2013-01-09 10:58:00,
2013-01-09 03:13:00,46.4,45.9,29.67,North,0,0.0,-999.0,98,-99.99,,,0.38,Acu-Link.com,2013-01-09 11:13:00,
2013-01-09 03:28:00,46.4,45.9,29.66,West,270,3.2,-999.0,98,-99.99,,,0.39,Acu-Link.com,2013-01-09 11:28:00,
2013-01-09 03:44:00,46.2,45.7,29.65,West,270,4.2,-999.0,98,-99.99,,,0.40,Acu-Link.com,2013-01-09 11:44:00,
2013-01-09 03:59:00,45.9,45.4,29.66,WNW,292,3.7,-999.0,98,-99.99,,,0.40,Acu-Link.com,2013-01-09 11:59:00,
2013-01-09 04:14:00,45.5,45.0,29.64,West,270,2.7,-999.0,98,-99.99,,,0.42,Acu-Link.com,2013-01-09 12:14:00,
2013-01-09 04:29:00,45.1,44.6,29.64,WNW,292,3.2,-999.0,98,-99.99,,,0.43,Acu-Link.com,2013-01-09 12:29:00,
2013-01-09 04:45:00,45.0,44.5,29.63,West,270,1.1,-999.0,98,-99.99,,,0.43,Acu-Link.com,2013-01-09 12:45:00,
2013-01-09 05:00:00,45.0,44.5,29.62,WSW,247,1.1,-999.0,98,-99.99,,,0.44,Acu-Link.com,2013-01-09 13:00:00,
2013-01-09 05:15:00,45.0,44.5,29.61,West,270,4.2,-999.0,98,-99.99,,,0.44,Acu-Link.com,2013-01-09 13:15:00,
2013-01-09 05:31:00,45.0,44.5,29.61,SW,225,1.7,-999.0,98,-99.99,,,0.44,Acu-Link.com,2013-01-09 13:31:00,
2013-01-09 05:46:00,44.6,44.1,29.61,West,270,3.2,-999.0,98,-99.99,,,0.44,Acu-Link.com,2013-01-09 13:46:00,
2013-01-09 06:01:00,44.6,44.1,29.63,SE,135,1.7,-999.0,98,-99.99,,,0.45,Acu-Link.com,2013-01-09 14:01:00,
2013-01-09 06:16:00,44.4,43.9,29.63,East,90,0.0,-999.0,98,-99.99,,,0.46,Acu-Link.com,2013-01-09 14:16:00,
2013-01-09 06:32:00,44.4,43.9,29.63,SSE,157,0.0,-999.0,98,-99.99,,,0.48,Acu-Link.com,2013-01-09 14:32:00,
2013-01-09 06:47:00,44.2,43.7,29.64,East,90,0.0,-999.0,98,-99.99,,,0.52,Acu-Link.com,2013-01-09 14:47:00,
2013-01-09 07:02:00,44.2,43.7,29.64,ESE,112,2.7,-999.0,98,-99.99,,,0.57,Acu-Link.com,2013-01-09 15:02:00,
2013-01-09 07:17:00,44.2,43.7,29.64,NW,315,0.0,-999.0,98,-99.99,,,0.60,Acu-Link.com,2013-01-09 15:17:00,
2013-01-09 07:33:00,44.2,43.7,29.65,South,180,0.0,-999.0,98,-99.99,,,0.63,Acu-Link.com,2013-01-09 15:33:00,
2013-01-09 07:48:00,44.2,43.7,29.66,ESE,112,0.0,-999.0,98,-99.99,,,0.68,Acu-Link.com,2013-01-09 15:48:00,
2013-01-09 08:03:00,44.4,43.9,29.67,WSW,247,0.0,-999.0,98,-99.99,,,0.79,Acu-Link.com,2013-01-09 16:03:00,
2013-01-09 08:19:00,44.4,43.9,29.68,West,270,0.0,-999.0,98,-99.99,,,0.86,Acu-Link.com,2013-01-09 16:19:00,
2013-01-09 08:34:00,44.4,43.9,29.67,West,270,2.2,-999.0,98,-99.99,,,0.89,Acu-Link.com,2013-01-09 16:34:00,
2013-01-09 08:49:00,44.6,44.1,29.67,North,0,1.1,-999.0,98,-99.99,,,0.90,Acu-Link.com,2013-01-09 16:49:00,
2013-01-09 09:04:00,44.6,44.1,29.68,ESE,112,0.0,-999.0,98,-99.99,,,0.91,Acu-Link.com,2013-01-09 17:04:00,
2013-01-09 09:20:00,44.4,43.9,29.68,East,90,2.2,-999.0,98,-99.99,,,0.91,Acu-Link.com,2013-01-09 17:20:00,
2013-01-09 09:35:00,44.6,44.1,29.68,WNW,292,0.0,-999.0,98,-99.99,,,0.91,Acu-Link.com,2013-01-09 17:35:00,
2013-01-09 09:50:00,44.8,44.3,29.68,NW,315,0.0,-999.0,98,-99.99,,,0.91,Acu-Link.com,2013-01-09 17:50:00,
2013-01-09 10:06:00,45.1,44.6,29.69,NW,315,0.0,-999.0,98,-99.99,,,0.91,Acu-Link.com,2013-01-09 18:06:00,
2013-01-09 10:21:00,45.3,44.8,29.69,West,270,0.0,-999.0,98,-99.99,,,0.91,Acu-Link.com,2013-01-09 18:21:00,
2013-01-09 10:36:00,45.1,44.6,29.69,WNW,292,0.0,-999.0,98,-99.99,,,0.91,Acu-Link.com,2013-01-09 18:36:00,
2013-01-09 10:52:00,45.1,44.6,29.69,ENE,67,1.7,-999.0,98,-99.99,,,0.91,Acu-Link.com,2013-01-09 18:52:00,
2013-01-09 11:07:00,44.8,44.3,29.70,West,270,2.2,-999.0,98,-99.99,,,0.91,Acu-Link.com,2013-01-09 19:07:00,
2013-01-09 11:22:00,45.1,44.6,29.70,East,90,0.0,-999.0,98,-99.99,,,0.91,Acu-Link.com,2013-01-09 19:22:00,
2013-01-09 11:37:00,45.5,45.0,29.69,West,270,1.1,-999.0,98,-99.99,,,0.91,Acu-Link.com,2013-01-09 19:37:00,
2013-01-09 11:53:00,45.7,45.2,29.69,WSW,247,4.2,-999.0,98,-99.99,,,0.91,Acu-Link.com,2013-01-09 19:53:00,
2013-01-09 12:08:00,45.5,45.0,29.70,West,270,3.2,-999.0,98,-99.99,,,0.91,Acu-Link.com,2013-01-09 20:08:00,
2013-01-09 12:23:00,45.7,45.2,29.69,SW,225,0.0,-999.0,98,-99.99,,,0.91,Acu-Link.com,2013-01-09 20:23:00,
2013-01-09 12:38:00,45.5,45.0,29.69,West,270,2.2,-999.0,98,-99.99,,,0.91,Acu-Link.com,2013-01-09 20:38:00,
2013-01-09 12:53:00,45.3,44.8,29.70,West,270,4.7,-999.0,98,-99.99,,,0.91,Acu-Link.com,2013-01-09 20:53:00,
2013-01-09 13:09:00,45.1,44.6,29.70,West,270,1.1,-999.0,98,-99.99,,,0.91,Acu-Link.com,2013-01-09 21:09:00,
2013-01-09 13:24:00,45.7,45.2,29.71,ESE,112,0.0,-999.0,98,-99.99,,,0.91,Acu-Link.com,2013-01-09 21:24:00,
2013-01-09 13:40:00,46.0,45.5,29.71,East,90,1.7,-999.0,98,-99.99,,,0.91,Acu-Link.com,2013-01-09 21:40:00,
2013-01-09 13:55:00,46.0,45.5,29.71,ESE,112,1.7,-999.0,98,-99.99,,,0.91,Acu-Link.com,2013-01-09 21:55:00,
2013-01-09 14:10:00,46.4,45.9,29.72,East,90,2.7,-999.0,98,-99.99,,,0.91,Acu-Link.com,2013-01-09 22:10:00,
2013-01-09 14:25:00,46.0,45.5,29.73,SSE,157,0.0,-999.0,98,-99.99,,,0.91,Acu-Link.com,2013-01-09 22:25:00,
2013-01-09 14:41:00,46.2,45.7,29.72,East,90,2.2,-999.0,98,-99.99,,,0.91,Acu-Link.com,2013-01-09 22:41:00,
2013-01-09 14:56:00,46.2,45.7,29.74,East,90,2.2,-999.0,98,-99.99,,,0.91,Acu-Link.com,2013-01-09 22:56:00,
2013-01-09 15:11:00,45.7,45.2,29.75,East,90,9.9,-999.0,98,-99.99,,,0.91,Acu-Link.com,2013-01-09 23:11:00,
2013-01-09 15:27:00,44.1,43.6,29.75,ENE,67,14.5,-999.0,98,-99.99,,,0.91,Acu-Link.com,2013-01-09 23:27:00,
2013-01-09 15:42:00,43.9,43.4,29.76,East,90,13.0,-999.0,98,-99.99,,,0.91,Acu-Link.com,2013-01-09 23:42:00,
2013-01-09 15:57:00,43.2,42.7,29.76,ESE,112,8.9,-999.0,98,-99.99,,,0.91,Acu-Link.com,2013-01-09 23:57:00,
2013-01-09 16:12:00,42.8,42.3,29.77,East,90,8.3,-999.0,98,-99.99,,,0.91,Acu-Link.com,2013-01-10 00:12:00,
2013-01-09 16:27:00,42.4,41.9,29.78,East,90,4.7,-999.0,98,-99.99,,,0.91,Acu-Link.com,2013-01-10 00:27:00,
2013-01-09 16:43:00,42.8,42.3,29.78,East,90,4.2,-999.0,98,-99.99,,,0.91,Acu-Link.com,2013-01-10 00:43:00,
2013-01-09 16:58:00,42.3,41.8,29.79,East,90,4.7,-999.0,98,-99.99,,,0.91,Acu-Link.com,2013-01-10 00:58:00,
2013-01-09 17:13:00,41.9,41.4,29.79,East,90,4.7,-999.0,98,-99.99,,,0.91,Acu-Link.com,2013-01-10 01:13:00,
2013-01-09 17:29:00,41.7,41.2,29.79,East,90,3.2,-999.0,98,-99.99,,,0.91,Acu-Link.com,2013-01-10 01:29:00,
2013-01-09 17:44:00,41.7,41.2,29.80,East,90,3.7,-999.0,98,-99.99,,,0.91,Acu-Link.com,2013-01-10 01:44:00,
2013-01-09 17:59:00,41.7,41.2,29.81,SW,225,0.0,-999.0,98,-99.99,,,0.91,Acu-Link.com,2013-01-10 01:59:00,
2013-01-09 18:15:00,41.5,41.0,29.82,ESE,112,3.2,-999.0,98,-99.99,,,0.92,Acu-Link.com,2013-01-10 02:15:00,
2013-01-09 18:30:00,41.5,41.0,29.83,North,0,0.0,-999.0,98,-99.99,,,0.93,Acu-Link.com,2013-01-10 02:30:00,
2013-01-09 18:45:00,41.5,41.0,29.83,ENE,67,0.0,-999.0,98,-99.99,,,0.93,Acu-Link.com,2013-01-10 02:45:00,
2013-01-09 19:01:00,41.5,41.0,29.83,SSW,202,0.0,-999.0,98,-99.99,,,0.93,Acu-Link.com,2013-01-10 03:01:00,
2013-01-09 19:16:00,41.5,41.0,29.84,East,90,4.2,-999.0,98,-99.99,,,0.93,Acu-Link.com,2013-01-10 03:16:00,
2013-01-09 19:31:00,41.4,40.9,29.85,SSW,202,0.0,-999.0,98,-99.99,,,0.93,Acu-Link.com,2013-01-10 03:31:00,
2013-01-09 19:47:00,41.4,40.9,29.84,SE,135,0.0,-999.0,98,-99.99,,,0.93,Acu-Link.com,2013-01-10 03:47:00,
2013-01-09 20:02:00,41.4,40.9,29.85,East,90,0.0,-999.0,98,-99.99,,,0.93,Acu-Link.com,2013-01-10 04:02:00,
2013-01-09 20:17:00,41.4,40.9,29.86,East,90,0.0,-999.0,98,-99.99,,,0.93,Acu-Link.com,2013-01-10 04:17:00,
2013-01-09 20:32:00,41.4,40.9,29.86,West,270,1.7,-999.0,98,-99.99,,,0.93,Acu-Link.com,2013-01-10 04:32:00,
2013-01-09 20:48:00,41.0,40.5,29.87,SSW,202,0.0,-999.0,98,-99.99,,,0.93,Acu-Link.com,2013-01-10 04:48:00,
2013-01-09 21:03:00,40.6,40.1,29.87,SSW,202,2.2,-999.0,98,-99.99,,,0.93,Acu-Link.com,2013-01-10 05:03:00,
2013-01-09 21:18:00,40.8,40.3,29.87,West,270,0.0,-999.0,98,-99.99,,,0.93,Acu-Link.com,2013-01-10 05:18:00,
2013-01-09 21:33:00,40.8,40.3,29.88,West,270,0.0,-999.0,98,-99.99,,,0.93,Acu-Link.com,2013-01-10 05:33:00,
2013-01-09 21:49:00,41.0,40.5,29.88,East,90,0.0,-999.0,98,-99.99,,,0.93,Acu-Link.com,2013-01-10 05:49:00,
2013-01-09 22:04:00,41.2,40.7,29.88,West,270,0.0,-999.0,98,-99.99,,,0.93,Acu-Link.com,2013-01-10 06:04:00,
2013-01-09 22:19:00,41.2,40.7,29.89,West,270,0.0,-999.0,98,-99.99,,,0.93,Acu-Link.com,2013-01-10 06:19:00,
2013-01-09 22:35:00,40.5,40.0,29.90,WSW,247,0.0,-999.0,98,-99.99,,,0.93,Acu-Link.com,2013-01-10 06:35:00,
2013-01-09 23:05:00,40.3,39.8,29.90,ESE,112,0.0,-999.0,98,-99.99,,,0.93,Acu-Link.com,2013-01-10 07:05:00,
2013-01-09 23:20:00,40.6,40.1,29.89,SSE,157,0.0,-999.0,98,-99.99,,,0.93,Acu-Link.com,2013-01-10 07:20:00,
2013-01-09 23:36:00,40.6,40.1,29.89,West,270,0.0,-999.0,98,-99.99,,,0.93,Acu-Link.com,2013-01-10 07:36:00,
2013-01-09 23:51:00,40.6,40.1,29.89,West,270,0.0,-999.0,98,-99.99,,,0.93,Acu-Link.com,2013-01-10 07:51:00,